TimeCST,TemperatureF,Dew PointF,Humidity,Sea Level PressureIn,VisibilityMPH,Wind Direction,Wind SpeedMPH,Gust SpeedMPH,PrecipitationIn,Events,Conditions,WindDirDegrees,DateUTC
12:15 AM,5.9,-0.0,77,30.31,10.0,Calm,Calm,-,N/A,,Clear,0,2014-02-04 06:15:00
12:35 AM,7.9,2.3,78,30.31,10.0,Calm,Calm,-,N/A,,Clear,0,2014-02-04 06:35:00
12:55 AM,7.3,1.9,79,30.32,10.0,Calm,Calm,-,N/A,,Clear,0,2014-02-04 06:55:00
1:15 AM,10.0,3.7,76,30.33,10.0,WNW,4.6,-,N/A,,Clear,290,2014-02-04 07:15:00
1:35 AM,10.2,3.2,73,30.34,10.0,West,3.5,-,N/A,,Clear,280,2014-02-04 07:35:00
1:55 AM,10.4,3.4,73,30.35,10.0,WNW,4.6,-,N/A,,Clear,290,2014-02-04 07:55:00
2:15 AM,9.9,3.0,74,30.36,10.0,West,4.6,-,N/A,,Clear,270,2014-02-04 08:15:00
2:35 AM,8.2,1.0,72,30.36,10.0,Calm,Calm,-,N/A,,Clear,0,2014-02-04 08:35:00
2:55 AM,1.8,-4.0,77,30.37,10.0,SW,4.6,-,N/A,,Clear,220,2014-02-04 08:55:00
3:15 AM,6.1,1.2,80,30.36,10.0,WNW,4.6,-,N/A,,Clear,300,2014-02-04 09:15:00
3:35 AM,7.7,2.7,80,30.37,10.0,WNW,5.8,-,N/A,,Clear,290,2014-02-04 09:35:00
3:55 AM,6.6,0.5,76,30.37,10.0,WNW,3.5,-,N/A,,Clear,300,2014-02-04 09:55:00
4:15 AM,4.8,-0.8,78,30.37,10.0,Calm,Calm,-,N/A,,Clear,0,2014-02-04 10:15:00
4:35 AM,2.3,-3.1,78,30.37,10.0,Calm,Calm,-,N/A,,Clear,0,2014-02-04 10:35:00
4:55 AM,2.3,-2.4,81,30.37,10.0,Calm,Calm,-,N/A,,Clear,0,2014-02-04 10:55:00
5:15 AM,2.1,-2.6,81,30.37,7.0,Calm,Calm,-,N/A,,Clear,0,2014-02-04 11:15:00
5:35 AM,1.2,-4.2,78,30.37,5.0,Calm,Calm,-,N/A,,Haze,0,2014-02-04 11:35:00
5:55 AM,1.8,-3.3,79,30.37,7.0,Calm,Calm,-,N/A,,Clear,0,2014-02-04 11:55:00
6:15 AM,1.4,-3.6,79,30.38,7.0,Calm,Calm,-,N/A,,Clear,0,2014-02-04 12:15:00
6:35 AM,0.3,-4.9,79,30.38,7.0,Calm,Calm,-,N/A,,Scattered Clouds,0,2014-02-04 12:35:00
6:55 AM,-0.9,-5.6,81,30.38,7.0,NNW,4.6,-,N/A,,Overcast,330,2014-02-04 12:55:00
7:15 AM,1.2,-3.3,81,30.37,7.0,NNW,5.8,-,N/A,,Overcast,340,2014-02-04 13:15:00
7:35 AM,3.6,-1.7,79,30.37,7.0,NNW,4.6,-,N/A,,Overcast,330,2014-02-04 13:35:00
7:55 AM,3.6,-1.8,78,30.39,7.0,Calm,Calm,-,N/A,,Overcast,0,2014-02-04 13:55:00
8:15 AM,2.8,-2.2,79,30.40,7.0,Calm,Calm,-,N/A,,Scattered Clouds,0,2014-02-04 14:15:00
8:35 AM,4.3,-1.3,78,30.41,7.0,Calm,Calm,-,N/A,,Mostly Cloudy,0,2014-02-04 14:35:00
8:55 AM,4.3,-0.8,80,30.42,7.0,Calm,Calm,-,N/A,,Overcast,0,2014-02-04 14:55:00
9:15 AM,5.4,0.5,80,30.42,7.0,Calm,Calm,-,N/A,,Overcast,0,2014-02-04 15:15:00
9:35 AM,8.4,3.2,79,30.42,10.0,Calm,Calm,-,N/A,,Overcast,0,2014-02-04 15:35:00
9:55 AM,10.4,3.2,73,30.42,10.0,NNW,3.5,-,N/A,,Overcast,340,2014-02-04 15:55:00
10:15 AM,12.2,2.3,65,30.42,10.0,NNW,3.5,-,N/A,,Overcast,340,2014-02-04 16:15:00
10:35 AM,13.5,2.8,63,30.42,10.0,North,3.5,-,N/A,,Mostly Cloudy,350,2014-02-04 16:35:00
10:55 AM,15.8,3.2,58,30.39,10.0,NNE,4.6,-,N/A,,Clear,30,2014-02-04 16:55:00
11:15 AM,16.5,3.0,55,30.39,10.0,NNE,5.8,-,N/A,,Clear,20,2014-02-04 17:15:00
11:35 AM,17.1,3.6,56,30.39,10.0,NNE,3.5,-,N/A,,Clear,20,2014-02-04 17:35:00
11:55 AM,18.5,3.9,53,30.38,10.0,Calm,Calm,-,N/A,,Clear,0,2014-02-04 17:55:00
12:15 PM,18.3,3.9,53,30.37,10.0,Calm,Calm,-,N/A,,Clear,0,2014-02-04 18:15:00
12:35 PM,19.8,5.4,54,30.37,10.0,ESE,4.6,-,N/A,,Clear,110,2014-02-04 18:35:00
12:55 PM,19.4,5.5,55,30.35,10.0,ESE,3.5,-,N/A,,Clear,120,2014-02-04 18:55:00
1:15 PM,19.6,5.2,54,30.35,10.0,Calm,Calm,-,N/A,,Clear,0,2014-02-04 19:15:00
1:35 PM,20.3,5.7,53,30.35,10.0,Calm,Calm,-,N/A,,Clear,0,2014-02-04 19:35:00
1:55 PM,20.1,5.9,54,30.34,10.0,Calm,Calm,-,N/A,,Clear,0,2014-02-04 19:55:00
2:15 PM,20.1,5.9,54,30.33,10.0,NNW,3.5,-,N/A,,Clear,340,2014-02-04 20:15:00
2:35 PM,20.3,5.9,54,30.33,10.0,North,4.6,-,N/A,,Clear,10,2014-02-04 20:35:00
2:55 PM,20.3,5.9,54,30.34,10.0,North,3.5,-,N/A,,Clear,350,2014-02-04 20:55:00
3:15 PM,20.1,5.9,54,30.34,10.0,North,3.5,-,N/A,,Clear,360,2014-02-04 21:15:00
3:35 PM,20.1,5.5,53,30.34,10.0,NNE,3.5,-,N/A,,Clear,30,2014-02-04 21:35:00
3:55 PM,19.8,5.7,55,30.35,10.0,Calm,Calm,-,N/A,,Clear,0,2014-02-04 21:55:00
4:15 PM,19.4,5.5,55,30.32,10.0,NNE,3.5,-,N/A,,Clear,20,2014-02-04 22:15:00
4:35 PM,19.2,5.9,56,30.30,10.0,Calm,Calm,-,N/A,,Clear,0,2014-02-04 22:35:00
4:55 PM,18.9,5.9,57,30.31,10.0,Calm,Calm,-,N/A,,Clear,0,2014-02-04 22:55:00
5:15 PM,18.5,5.7,58,30.32,10.0,Calm,Calm,-,N/A,,Clear,0,2014-02-04 23:15:00
5:35 PM,16.3,5.5,63,30.34,10.0,Calm,Calm,-,N/A,,Clear,0,2014-02-04 23:35:00
6:15 PM,16.7,5.9,63,30.33,10.0,Calm,Calm,-,N/A,,Clear,0,2014-02-05 00:15:00
6:35 PM,14.9,5.9,68,30.34,10.0,Calm,Calm,-,N/A,,Clear,0,2014-02-05 00:35:00
6:55 PM,14.5,6.3,70,30.32,7.0,North,3.5,-,N/A,,Clear,10,2014-02-05 00:55:00
7:15 PM,13.3,5.7,72,30.31,10.0,Calm,Calm,-,N/A,,Clear,0,2014-02-05 01:15:00
7:35 PM,13.8,5.5,70,30.30,10.0,North,3.5,-,N/A,,Clear,350,2014-02-05 01:35:00
7:55 PM,14.7,5.9,68,30.29,10.0,North,3.5,-,N/A,,Clear,350,2014-02-05 01:55:00
8:15 PM,14.0,5.0,67,30.29,10.0,Calm,Calm,-,N/A,,Clear,0,2014-02-05 02:15:00
8:35 PM,13.6,5.0,68,30.28,10.0,North,3.5,-,N/A,,Clear,360,2014-02-05 02:35:00
8:55 PM,14.0,5.5,69,30.29,10.0,Calm,Calm,-,N/A,,Clear,0,2014-02-05 02:55:00
9:15 PM,14.4,5.5,68,30.28,10.0,North,3.5,-,N/A,,Clear,360,2014-02-05 03:15:00
9:35 PM,14.0,5.4,69,30.28,10.0,North,3.5,-,N/A,,Clear,360,2014-02-05 03:35:00
9:55 PM,13.1,4.8,70,30.27,10.0,North,3.5,-,N/A,,Clear,360,2014-02-05 03:55:00
10:15 PM,13.1,5.4,71,30.27,10.0,North,3.5,-,N/A,,Clear,350,2014-02-05 04:15:00
10:35 PM,13.5,5.4,70,30.27,10.0,North,4.6,-,N/A,,Clear,350,2014-02-05 04:35:00
10:55 PM,13.8,5.5,70,30.28,10.0,Calm,Calm,-,N/A,,Clear,0,2014-02-05 04:55:00
11:15 PM,13.3,5.2,70,30.28,10.0,North,3.5,-,N/A,,Scattered Clouds,350,2014-02-05 05:15:00
11:35 PM,13.6,5.5,70,30.28,10.0,NNW,4.6,-,N/A,,Clear,340,2014-02-05 05:35:00
11:55 PM,14.0,5.5,69,30.28,10.0,North,4.6,-,N/A,,Clear,10,2014-02-05 05:55:00